[[{"header":{"parameterUnit":"m.s-1","parameterCategory":1,"la1":30.2991,"la2":30.254,"lo1":-89.0895,"lo2":-89.0444,"dy":0.0017,"dx":0.0017,"nx":28,"ny":28,"refTime":"2024-06-08T21:00:00:Z","depth":0,"parameterNumber":2,"parameterNumberName":"U-component_of_WINDS"},"data":[0,0,0,0,0,0,0,0,0,0,0,0,0,0,0,0,0,0,0,0,0,0,0,0,0,0,0,0,0,0,0,0,0,0,0,0,0,0,0,0,0,0,0,0,0,0,0,0,0,0,0,0,0,0,0,0,0,0,3.7921,3.7923,0,3.8086,3.8088,3.809,3.8113,3.8112,3.811,3.8109,3.8281,3.8287,3.8293,0,0,0,0,0,0,0,0,0,0,0,0,0,3.7627,3.7632,3.7921,3.7923,3.7925,3.8086,3.8088,3.8091,3.8114,3.8112,3.811,3.8108,3.8279,3.8286,3.8293,0,0,0,0,0,0,0,0,0,0,0,0,0,3.777,3.7634,3.7921,3.7956,3.7961,3.8086,3.8088,3.8091,3.8114,3.8112,3.8109,3.8107,3.8277,3.8285,3.8294,3.8396,0,0,3.8322,3.8326,0,0,0,0,0,0,0,0,3.7762,3.7781,3.7949,3.7954,3.7959,3.8077,3.8048,3.8194,3.8115,3.8056,3.8109,3.8106,3.8215,3.8229,3.8265,3.8405,3.8412,3.8323,3.8328,3.8332,3.8335,0,0,0,0,0,0,0,3.7752,3.7774,3.7986,3.7951,3.7958,3.7964,3.7982,3.8076,3.8147,3.8061,3.8063,3.8082,3.8218,3.8256,3.8269,3.8414,3.8322,3.833,3.8336,3.834,3.8646,3.8648,0,0,0,0,0,0,3.7735,3.7765,3.7981,3.7991,3.7853,3.7971,3.7991,3.8041,3.8146,3.8159,3.8084,3.8082,3.8242,3.8259,3.8276,3.8402,3.8332,3.834,3.8346,3.8643,3.8646,3.8649,0,0,0,0,0,0,3.7729,3.7754,3.7975,3.7879,3.7908,3.7979,3.8035,3.8046,3.8085,3.8163,3.8176,3.811,3.8241,3.8263,3.8366,3.8408,3.8345,3.8353,3.864,3.8644,3.8648,3.8655,0,0,0,0,0,0,3.772,3.7752,3.7791,3.788,3.7913,3.8061,3.8038,3.8051,3.81,3.81,3.8191,3.8204,3.8241,3.8352,3.8375,3.8419,3.836,3.8636,3.8642,3.8647,3.8651,3.8658,3.8665,0,0,0,0,0,3.771,3.7787,3.7793,3.7819,3.7963,3.8064,3.8083,3.8122,3.8103,3.8143,3.8194,3.8201,3.84,3.8363,3.8388,3.8436,3.8634,3.864,3.8646,3.8648,3.8657,3.8665,0,0,0,0,0,0,3.7702,3.7799,3.7807,3.7914,3.7981,3.8067,3.8119,3.8131,3.8204,3.8201,3.8248,3.8269,3.837,3.8414,3.837,3.854,3.8515,3.8527,3.8508,3.8517,3.8524,3.8511,3.8367,0,0,0,0,0,3.7712,3.7786,3.7867,3.7954,3.7987,3.8047,3.8093,3.8118,3.8189,3.8217,3.8275,3.8344,3.8422,3.8472,3.8548,3.8658,3.8678,3.8703,3.871,3.8715,3.8725,3.8786,3.8798,3.8669,3.8669,3.8669,0,0,3.7735,3.7798,3.7841,3.7954,3.8008,3.8084,3.8071,3.8151,3.8208,3.8229,3.833,3.8375,3.8455,3.8562,3.8612,3.8601,3.8765,3.8723,3.8727,3.8733,3.8793,3.8805,3.8816,3.8674,3.8673,3.8672,0,0,3.7815,3.787,3.7948,3.8003,3.8085,3.8124,3.8143,3.8228,3.8259,3.836,3.8378,3.8446,3.858,3.8636,3.8682,3.8784,3.8793,3.8807,3.8843,3.8902,3.8912,3.8921,3.8957,3.8969,3.8816,3.8816,3.8816,0,3.7834,3.7947,3.7988,3.8067,3.8117,3.8139,3.8219,3.827,3.8373,3.8407,3.8394,3.8561,3.8617,3.8737,3.8761,3.8798,3.8821,3.8797,3.8907,3.8917,3.8926,3.896,3.8974,3.8817,3.8817,3.8817,3.8817,0,3.7966,3.8044,3.8098,3.8195,3.8251,3.833,3.8383,3.8435,3.8455,3.8496,3.86,3.8667,3.8757,3.8788,3.8809,3.8911,3.8902,3.8897,3.8873,3.8938,3.8972,3.8985,3.8819,3.8819,3.8818,3.8818,0,0,3.8045,3.8163,3.8182,3.8227,3.8319,3.8381,3.8461,3.8548,3.8592,3.8662,3.8731,3.8843,3.884,3.8892,3.892,3.8971,3.9047,3.8961,3.8964,3.8974,3.9163,3.9165,3.9179,3.9054,3.9057,3.9059,3.9156,0,3.8135,3.8278,3.8317,3.8439,3.8512,3.8534,3.8605,3.8669,3.871,3.8778,3.8824,3.8902,3.8892,3.8924,3.8976,3.9026,3.9085,3.902,3.9119,3.9122,3.9097,3.9197,3.9199,3.9287,3.9169,3.9171,3.9173,0,3.8259,3.8331,3.846,3.8542,3.8574,3.8636,3.8719,3.8784,3.8858,3.8884,3.8942,3.8965,3.9051,3.9022,3.9141,3.9096,3.9139,3.917,3.9174,3.9184,3.9151,3.9209,3.9316,3.9329,3.9194,3.9192,3.9191,0,3.8303,3.8432,3.8526,3.8563,3.8662,3.8705,3.8748,3.8819,3.8869,3.8942,3.8975,3.9057,3.9102,3.9165,3.921,3.9185,3.9325,3.93,3.9349,3.9348,3.9376,3.9374,3.9491,3.9406,3.9405,3.9405,3.9405,0,3.8399,3.8477,3.8547,3.8604,3.8692,3.8736,3.8822,3.8866,3.893,3.8996,3.9022,3.9084,3.914,3.921,3.9246,3.9338,3.9359,3.9382,3.9391,3.9379,3.9376,3.9407,3.9402,3.9409,3.9408,3.9407,3.9407,0,3.8463,3.8513,3.8616,3.87,3.8723,3.8784,3.8857,3.8914,3.8956,3.904,3.9062,3.9128,3.9212,3.9263,3.9369,3.9393,3.9495,3.9502,3.947,3.9473,3.9519,3.9513,3.966,3.9681,3.9582,3.9582,3.9583,0,3.8521,3.8581,3.8671,3.8717,3.8761,3.8835,3.8885,3.8932,3.8984,3.9072,3.9118,3.9203,3.9274,3.9407,3.9464,3.9546,3.9554,3.96,3.9567,3.9553,3.9554,3.9549,3.9555,3.9605,3.9606,3.9607,3.9607,0,3.8617,3.8639,3.871,3.879,3.885,3.8915,3.8981,3.9017,3.9075,3.9132,3.9217,3.9272,3.938,3.9464,3.9551,3.9596,3.9611,3.9617,3.9633,3.9621,3.96,3.9611,3.9484,3.9614,3.9613,3.9612,3.9612,3.9612,3.8679,3.8733,3.8805,3.8884,3.8938,3.8999,3.9056,3.9104,3.9176,3.9267,3.929,3.9379,3.9452,3.957,3.9617,3.9688,3.9681,3.9704,3.9709,3.9714,3.9714,3.9589,3.9704,3.9704,3.9704,3.9704,3.9704,0,3.8776,3.8824,3.8896,3.8986,3.9048,3.9056,3.9129,3.918,3.9258,3.9324,3.9393,3.9491,3.9573,3.9637,3.9721,3.9765,3.9774,3.9786,3.9782,3.9792,3.9716,3.9694,3.9777,3.9777,3.9777,3.9777,3.9777,3.9777,3.8834,3.8926,3.8956,3.9075,3.9122,3.9209,3.925,3.9306,3.9358,3.9466,3.9534,3.9575,3.964,3.9729,3.9805,3.9821,3.9851,3.9861,3.9879,3.9806,3.9798,3.979,3.9769,3.9867,3.9867,3.9949,3.995,3.995]},{"header":{"parameterUnit":"m.s-1","parameterCategory":1,"la1":30.2991,"la2":30.254,"lo1":-89.0895,"lo2":-89.0444,"dy":0.0017,"dx":0.0017,"nx":28,"ny":28,"refTime":"2024-06-08T21:00:00:Z","depth":0,"parameterNumber":3,"parameterNumberName":"V-component_of_WINDS"},"data":[0,0,0,0,0,0,0,0,0,0,0,0,0,0,0,0,0,0,0,0,0,0,0,0,0,0,0,0,0,0,0,0,0,0,0,0,0,0,0,0,0,0,0,0,0,0,0,0,0,0,0,0,0,0,0,0,0,0,0.8677,0.8678,0,0.8804,0.8805,0.8807,0.884,0.8839,0.8839,0.8838,0.8969,0.8973,0.8977,0,0,0,0,0,0,0,0,0,0,0,0,0,0.8463,0.8466,0.8677,0.8678,0.868,0.8804,0.8806,0.8807,0.884,0.8839,0.8838,0.8838,0.8967,0.8972,0.8977,0,0,0,0,0,0,0,0,0,0,0,0,0,0.8569,0.8468,0.8676,0.8711,0.8716,0.8803,0.8806,0.8808,0.8841,0.8839,0.8838,0.8837,0.8966,0.8972,0.8978,0.904,0,0,0.8997,0.9,0,0,0,0,0,0,0,0,0.8563,0.8577,0.8705,0.8709,0.8714,0.8805,0.8778,0.8886,0.8841,0.8793,0.8838,0.8837,0.8915,0.8926,0.8952,0.9046,0.9052,0.8998,0.9002,0.9004,0.9006,0,0,0,0,0,0,0,0.8556,0.8572,0.8727,0.8706,0.8712,0.8721,0.8735,0.8799,0.8859,0.8797,0.88,0.8815,0.8918,0.8946,0.8955,0.9054,0.8998,0.9003,0.9007,0.901,0.9206,0.9207,0,0,0,0,0,0,0.8542,0.8565,0.8723,0.8731,0.8634,0.8725,0.8741,0.8777,0.8859,0.887,0.8815,0.8816,0.8936,0.8948,0.896,0.9039,0.9004,0.901,0.9014,0.9204,0.9206,0.9208,0,0,0,0,0,0,0.8538,0.8556,0.8718,0.8649,0.867,0.873,0.8771,0.878,0.8809,0.8872,0.8883,0.8833,0.8935,0.8951,0.902,0.9044,0.9013,0.9019,0.9203,0.9205,0.9207,0.9196,0,0,0,0,0,0,0.8531,0.8554,0.8578,0.8649,0.8674,0.8776,0.8772,0.8783,0.8819,0.8821,0.8892,0.8903,0.8936,0.901,0.9026,0.9052,0.9024,0.9201,0.9204,0.9206,0.9195,0.9198,0.92,0,0,0,0,0,0.8524,0.857,0.8579,0.8598,0.8705,0.8777,0.8791,0.8828,0.8821,0.8846,0.8887,0.89,0.9038,0.9017,0.9035,0.9063,0.92,0.9203,0.9206,0.9193,0.9197,0.92,0,0,0,0,0,0,0.8501,0.858,0.8591,0.8662,0.8713,0.8782,0.8815,0.8831,0.8884,0.8883,0.8927,0.8943,0.9009,0.9043,0.9018,0.9128,0.9119,0.9126,0.9103,0.9107,0.911,0.9101,0.9029,0,0,0,0,0,0.8504,0.8556,0.8622,0.8678,0.8703,0.8755,0.8787,0.8811,0.8865,0.8887,0.8933,0.8985,0.904,0.9075,0.9129,0.9199,0.9215,0.9227,0.923,0.9232,0.9238,0.9278,0.9284,0.9218,0.9218,0.9218,0,0,0.8511,0.8561,0.8591,0.8675,0.8717,0.877,0.8772,0.8828,0.8867,0.8895,0.8963,0.8999,0.9059,0.9129,0.9162,0.916,0.9259,0.9236,0.9237,0.9242,0.9281,0.9288,0.9293,0.922,0.922,0.922,0,0,0.8552,0.8594,0.8646,0.8688,0.8751,0.8785,0.8797,0.8865,0.8889,0.8958,0.898,0.9028,0.9122,0.9164,0.9198,0.9254,0.9268,0.927,0.9285,0.9323,0.9328,0.9333,0.9354,0.936,0.9276,0.9276,0.9276,0,0.8553,0.8633,0.8671,0.8725,0.8762,0.8789,0.8842,0.8881,0.8958,0.8983,0.8979,0.9097,0.914,0.922,0.9234,0.926,0.9276,0.9263,0.9325,0.933,0.9335,0.9355,0.9362,0.9276,0.9276,0.9276,0.9276,0,0.8632,0.8687,0.8721,0.8795,0.8835,0.8889,0.8934,0.8971,0.8991,0.9025,0.9095,0.9147,0.9212,0.9233,0.9253,0.9316,0.9313,0.9316,0.9308,0.934,0.936,0.9368,0.9275,0.9275,0.9275,0.9275,0,0,0.8662,0.8756,0.8768,0.8802,0.8874,0.8917,0.8971,0.9035,0.9066,0.9118,0.9165,0.9243,0.9247,0.9285,0.9311,0.9344,0.9385,0.9344,0.9346,0.935,0.9458,0.9456,0.9464,0.9395,0.9397,0.9398,0.9453,0,0.8712,0.881,0.8846,0.8927,0.8978,0.9004,0.9052,0.9101,0.9134,0.9183,0.922,0.9275,0.9275,0.9298,0.9333,0.9373,0.9408,0.9369,0.944,0.9442,0.9424,0.9474,0.9472,0.9522,0.9461,0.9462,0.9463,0,0.8783,0.8836,0.8922,0.8988,0.901,0.9053,0.9114,0.916,0.9216,0.9238,0.928,0.9303,0.9361,0.9349,0.943,0.9403,0.9434,0.9458,0.9461,0.9469,0.9455,0.9485,0.9538,0.9546,0.9476,0.9475,0.9474,0,0.8797,0.889,0.8954,0.8982,0.906,0.9089,0.9122,0.9177,0.9213,0.9267,0.9291,0.935,0.9383,0.9428,0.9466,0.9454,0.9544,0.9535,0.9564,0.9563,0.9582,0.9581,0.9642,0.9601,0.96,0.96,0.96,0,0.8849,0.8901,0.8961,0.9001,0.9059,0.9099,0.9157,0.9192,0.924,0.9287,0.9313,0.9356,0.9404,0.9453,0.9483,0.9546,0.956,0.958,0.9587,0.9578,0.9575,0.9599,0.9597,0.9602,0.9602,0.9601,0.9601,0,0.8875,0.8918,0.8989,0.9056,0.9074,0.9115,0.9173,0.9212,0.9246,0.9305,0.9321,0.9374,0.9434,0.9476,0.9553,0.9573,0.964,0.9647,0.9621,0.9625,0.9652,0.9649,0.9732,0.9745,0.9693,0.9694,0.9694,0,0.8906,0.8947,0.9018,0.9051,0.9085,0.9138,0.9175,0.9216,0.9253,0.932,0.9351,0.9412,0.9463,0.9557,0.9603,0.9661,0.967,0.9695,0.9679,0.9668,0.9671,0.9669,0.9673,0.9698,0.9698,0.9698,0.9698,0,0.8957,0.8975,0.9028,0.9087,0.9131,0.9179,0.9229,0.9254,0.9304,0.9344,0.9405,0.9445,0.9523,0.9584,0.9647,0.9681,0.9698,0.9703,0.9713,0.9704,0.9687,0.9697,0.9628,0.9701,0.9701,0.9701,0.97,0.97,0.8987,0.9024,0.908,0.9137,0.9179,0.9224,0.9264,0.9303,0.9355,0.9422,0.9442,0.9506,0.9561,0.9647,0.9682,0.9733,0.9731,0.9746,0.9749,0.9752,0.9752,0.9679,0.9744,0.9744,0.9744,0.9744,0.9744,0,0.9039,0.9076,0.9128,0.9196,0.9241,0.9253,0.9308,0.9345,0.94,0.945,0.95,0.957,0.9629,0.9679,0.974,0.977,0.978,0.9785,0.9783,0.9791,0.975,0.9735,0.9776,0.9776,0.9776,0.9776,0.9776,0.9776,0.9071,0.9135,0.916,0.9245,0.9282,0.9344,0.9375,0.9417,0.9457,0.9534,0.9583,0.9615,0.9665,0.973,0.9784,0.9797,0.9819,0.9822,0.9837,0.9798,0.9794,0.979,0.9777,0.9827,0.9827,0.9875,0.9876,0.9876]}]]